Time,TemperatureF,DewpointF,PressureIn,WindDirection,WindDirectionDegrees,WindSpeedMPH,WindSpeedGustMPH,Humidity,HourlyPrecipIn,Conditions,Clouds,dailyrainin,SoftwareType,DateUTC
2013-01-26 00:17:00,52.7,43.3,29.54,SSW,202,2.0,2.0,70,0.00,,OVC,0.00,WUHU21623XXSP,2013-01-25 22:17:00,
2013-01-26 00:22:00,52.7,43.7,29.54,SSE,157,8.9,13.1,71,0.00,,OVC,0.00,WUHU21623XXSP,2013-01-25 22:22:00,
2013-01-26 00:27:00,52.7,43.7,29.54,South,180,5.6,13.1,71,0.00,,OVC,0.00,WUHU21623XXSP,2013-01-25 22:27:00,
2013-01-26 00:32:00,52.9,43.9,29.53,SSE,157,4.9,10.8,71,0.00,,OVC,0.00,WUHU21623XXSP,2013-01-25 22:32:00,
2013-01-26 01:27:00,52.5,44.2,29.51,SE,135,3.4,3.4,73,0.00,,OVC,0.00,WUHU21623XXSP,2013-01-25 23:27:00,
2013-01-26 02:27:00,51.4,42.4,29.49,North,0,0.0,0.0,71,0.00,,OVC,0.01,WUHU21623XXSP,2013-01-26 00:27:00,
2013-01-26 03:27:00,50.2,44.0,29.49,NE,45,0.0,0.0,79,0.00,,OVC,0.02,WUHU21623XXSP,2013-01-26 01:27:00,
2013-01-26 04:27:00,49.1,44.2,29.48,North,0,2.4,2.4,83,0.00,,OVC,0.02,WUHU21623XXSP,2013-01-26 02:27:00,
2013-01-26 05:27:00,47.8,44.1,29.47,NNE,23,0.0,0.0,87,0.00,,OVC,0.02,WUHU21623XXSP,2013-01-26 03:27:00,
2013-01-26 06:27:00,47.8,44.1,29.46,NNE,23,1.4,1.4,87,0.00,,OVC,0.02,WUHU21623XXSP,2013-01-26 04:27:00,
2013-01-26 07:27:00,47.5,43.5,29.47,North,0,0.0,0.0,86,0.00,,OVC,0.02,WUHU21623XXSP,2013-01-26 05:27:00,
2013-01-26 08:13:00,46.9,43.5,29.47,North,0,1.8,1.8,88,0.00,,OVC,0.02,WUHU21623XXSP,2013-01-26 06:13:00,
2013-01-26 08:18:00,46.9,42.9,29.47,NNE,22,3.4,4.9,86,0.00,,SCT,0.02,WUHU21623XXSP,2013-01-26 06:18:00,
2013-01-26 08:23:00,47.1,43.4,29.47,North,0,4.2,5.6,87,0.00,,SCT,0.02,WUHU21623XXSP,2013-01-26 06:23:00,
2013-01-26 08:29:00,47.7,43.7,29.47,NNE,22,5.2,6.4,86,0.00,,SCT,0.02,WUHU21623XXSP,2013-01-26 06:29:00,
2013-01-26 08:34:00,48.0,44.0,29.47,NNE,22,2.0,7.2,86,0.00,,SCT,0.02,WUHU21623XXSP,2013-01-26 06:34:00,
2013-01-26 08:39:00,48.6,44.6,29.47,North,0,1.4,7.2,86,0.00,,SCT,0.02,WUHU21623XXSP,2013-01-26 06:39:00,
2013-01-26 08:44:00,49.5,45.2,29.48,North,0,3.7,6.6,85,0.00,,SCT,0.02,WUHU21623XXSP,2013-01-26 06:44:00,
2013-01-26 08:49:00,49.6,45.0,29.48,North,0,3.4,6.6,84,0.00,,SCT,0.02,WUHU21623XXSP,2013-01-26 06:49:00,
2013-01-26 08:54:00,50.2,45.2,29.48,NE,45,0.0,8.4,83,0.00,,SCT,0.02,WUHU21623XXSP,2013-01-26 06:54:00,
2013-01-26 08:59:00,50.4,45.1,29.48,North,0,0.0,8.4,82,0.00,,SCT,0.02,WUHU21623XXSP,2013-01-26 06:59:00,
2013-01-26 09:04:00,50.5,45.2,29.48,WNW,292,2.2,6.9,82,0.00,,SCT,0.02,WUHU21623XXSP,2013-01-26 07:04:00,
2013-01-26 09:09:00,50.7,45.1,29.49,ENE,67,4.9,6.6,81,0.00,,SCT,0.02,WUHU21623XXSP,2013-01-26 07:09:00,
2013-01-26 09:14:00,50.9,44.7,29.48,NNE,22,4.0,6.6,79,0.00,,SCT,0.02,WUHU21623XXSP,2013-01-26 07:14:00,
2013-01-26 09:19:00,50.9,44.7,29.48,NNE,22,0.0,5.9,79,0.00,,SCT,0.02,WUHU21623XXSP,2013-01-26 07:19:00,
2013-01-26 09:24:00,51.3,45.1,29.48,NNE,22,1.4,4.7,79,0.00,,SCT,0.02,WUHU21623XXSP,2013-01-26 07:24:00,
2013-01-26 09:29:00,51.4,45.2,29.48,NNE,22,3.2,4.0,79,0.00,,SCT,0.02,WUHU21623XXSP,2013-01-26 07:29:00,
2013-01-26 09:34:00,52.0,45.7,29.48,NNE,22,1.8,4.2,79,0.00,,SCT,0.02,WUHU21623XXSP,2013-01-26 07:34:00,
2013-01-26 09:39:00,52.3,45.7,29.49,North,0,1.8,4.2,78,0.00,,SCT,0.02,WUHU21623XXSP,2013-01-26 07:39:00,
2013-01-26 09:44:00,53.1,46.1,29.49,North,0,2.4,3.4,77,0.00,,SCT,0.02,WUHU21623XXSP,2013-01-26 07:44:00,
2013-01-26 09:49:00,53.2,45.9,29.49,North,0,0.0,3.4,76,0.00,,SCT,0.02,WUHU21623XXSP,2013-01-26 07:49:00,
2013-01-26 09:54:00,54.3,46.3,29.49,NNE,22,0.0,3.0,74,0.00,,SCT,0.02,WUHU21623XXSP,2013-01-26 07:54:00,
2013-01-26 09:59:00,55.4,45.5,29.49,WNW,292,0.0,2.4,69,0.00,,SCT,0.02,WUHU21623XXSP,2013-01-26 07:59:00,
2013-01-26 10:04:00,55.8,43.9,29.49,West,270,0.0,2.2,64,0.00,,SCT,0.02,WUHU21623XXSP,2013-01-26 08:04:00,
2013-01-26 10:09:00,55.8,42.7,29.49,ESE,112,3.2,4.4,61,0.00,,SCT,0.02,WUHU21623XXSP,2013-01-26 08:09:00,
2013-01-26 10:14:00,56.3,41.8,29.49,South,180,0.0,4.4,58,0.00,,SCT,0.02,WUHU21623XXSP,2013-01-26 08:14:00,
2013-01-26 10:19:00,56.7,41.7,29.49,SSE,157,0.0,5.4,57,0.00,,SCT,0.02,WUHU21623XXSP,2013-01-26 08:19:00,
2013-01-26 10:24:00,56.8,44.0,29.49,SSE,157,4.7,5.4,62,0.00,,SCT,0.02,WUHU21623XXSP,2013-01-26 08:24:00,
2013-01-26 10:29:00,56.7,43.5,29.49,NW,315,0.0,5.4,61,0.00,,SCT,0.02,WUHU21623XXSP,2013-01-26 08:29:00,
2013-01-26 10:34:00,56.5,43.3,29.49,West,270,0.0,3.7,61,0.00,,SCT,0.02,WUHU21623XXSP,2013-01-26 08:34:00,
2013-01-26 10:39:00,57.0,43.8,29.49,South,180,1.2,3.4,61,0.00,,SCT,0.02,WUHU21623XXSP,2013-01-26 08:39:00,
2013-01-26 10:44:00,57.0,43.8,29.49,NNW,337,0.0,3.4,61,0.00,,SCT,0.02,WUHU21623XXSP,2013-01-26 08:44:00,
2013-01-26 10:49:00,56.7,43.5,29.49,North,0,0.0,0.0,61,0.00,,SCT,0.02,WUHU21623XXSP,2013-01-26 08:49:00,
2013-01-26 10:54:00,56.3,43.6,29.49,East,90,0.0,0.0,62,0.00,,SCT,0.02,WUHU21623XXSP,2013-01-26 08:54:00,
2013-01-26 10:59:00,56.7,42.6,29.49,South,180,0.0,1.2,59,0.00,,SCT,0.02,WUHU21623XXSP,2013-01-26 08:59:00,
2013-01-26 11:04:00,56.7,42.6,29.49,NNE,22,0.0,1.2,59,0.00,,SCT,0.02,WUHU21623XXSP,2013-01-26 09:04:00,
2013-01-26 11:09:00,56.7,43.1,29.49,NE,45,3.2,5.6,60,0.00,,SCT,0.02,WUHU21623XXSP,2013-01-26 09:09:00,
2013-01-26 11:14:00,56.3,42.7,29.49,NE,45,0.0,5.6,60,0.00,,SCT,0.02,WUHU21623XXSP,2013-01-26 09:14:00,
2013-01-26 11:19:00,56.8,42.7,29.49,ENE,67,0.0,4.4,59,0.00,,SCT,0.02,WUHU21623XXSP,2013-01-26 09:19:00,
2013-01-26 11:24:00,56.8,42.7,29.49,South,180,0.0,2.2,59,0.00,,SCT,0.02,WUHU21623XXSP,2013-01-26 09:24:00,
2013-01-26 11:29:00,57.0,42.5,29.49,SW,225,2.2,2.8,58,0.00,,SCT,0.02,WUHU21623XXSP,2013-01-26 09:29:00,
2013-01-26 11:34:00,56.8,42.3,29.50,SSW,202,0.0,4.4,58,0.00,,SCT,0.02,WUHU21623XXSP,2013-01-26 09:34:00,
2013-01-26 11:39:00,56.7,42.6,29.49,South,180,0.0,4.4,59,0.00,,SCT,0.02,WUHU21623XXSP,2013-01-26 09:39:00,
2013-01-26 11:44:00,56.5,42.4,29.49,SSW,202,0.0,4.0,59,0.00,,BKN,0.02,WUHU21623XXSP,2013-01-26 09:44:00,
2013-01-26 11:49:00,56.7,42.6,29.49,SSE,157,0.0,3.7,59,0.00,,BKN,0.02,WUHU21623XXSP,2013-01-26 09:49:00,
2013-01-26 11:54:00,56.7,42.6,29.49,SW,225,0.0,1.2,59,0.00,,BKN,0.02,WUHU21623XXSP,2013-01-26 09:54:00,
2013-01-26 11:59:00,56.5,42.4,29.49,WNW,292,0.0,0.0,59,0.00,,BKN,0.02,WUHU21623XXSP,2013-01-26 09:59:00,
2013-01-26 12:04:00,56.3,42.3,29.49,WNW,292,0.0,0.0,59,0.00,,BKN,0.02,WUHU21623XXSP,2013-01-26 10:04:00,
2013-01-26 12:09:00,56.3,42.3,29.49,SSW,202,0.0,0.0,59,0.00,,BKN,0.02,WUHU21623XXSP,2013-01-26 10:09:00,
2013-01-26 12:14:00,56.1,43.0,29.49,ESE,112,0.0,6.6,61,0.00,,BKN,0.02,WUHU21623XXSP,2013-01-26 10:14:00,
2013-01-26 12:19:00,55.9,43.6,29.49,ENE,67,0.0,6.6,63,0.00,,BKN,0.02,WUHU21623XXSP,2013-01-26 10:19:00,
2013-01-26 12:24:00,55.8,44.3,29.48,ESE,112,2.2,6.4,65,0.00,,BKN,0.02,WUHU21623XXSP,2013-01-26 10:24:00,
2013-01-26 12:29:00,55.6,44.5,29.48,East,90,0.0,6.4,66,0.00,,BKN,0.02,WUHU21623XXSP,2013-01-26 10:29:00,
2013-01-26 12:34:00,55.2,44.2,29.49,East,90,0.0,7.6,66,0.00,,BKN,0.02,WUHU21623XXSP,2013-01-26 10:34:00,
2013-01-26 12:39:00,55.6,46.1,29.48,East,90,0.0,7.6,70,0.01,RA,,0.04,WUHU21623XXSP,2013-01-26 10:39:00,
2013-01-26 12:44:00,55.2,46.4,29.49,ENE,67,0.0,4.4,72,0.02,RA,,0.05,WUHU21623XXSP,2013-01-26 10:44:00,
2013-01-26 12:49:00,55.0,47.3,29.48,North,0,3.0,3.7,75,0.02,RA,,0.05,WUHU21623XXSP,2013-01-26 10:49:00,
2013-01-26 12:54:00,54.9,46.9,29.48,ENE,67,3.2,4.9,74,0.02,RA,,0.05,WUHU21623XXSP,2013-01-26 10:54:00,
2013-01-26 12:59:00,54.9,46.5,29.48,NE,45,0.0,4.9,73,0.02,RA,,0.05,WUHU21623XXSP,2013-01-26 10:59:00,
2013-01-26 13:04:00,54.9,46.5,29.48,NE,45,0.0,4.4,73,0.02,RA,,0.05,WUHU21623XXSP,2013-01-26 11:04:00,
2013-01-26 13:09:00,54.5,45.4,29.48,NE,45,0.0,5.9,71,0.02,,OVC,0.05,WUHU21623XXSP,2013-01-26 11:09:00,
2013-01-26 13:14:00,54.3,45.6,29.48,NE,45,0.0,5.9,72,0.02,,OVC,0.05,WUHU21623XXSP,2013-01-26 11:14:00,
2013-01-26 13:19:00,54.3,45.9,29.48,NE,45,0.0,5.4,73,0.02,,OVC,0.05,WUHU21623XXSP,2013-01-26 11:19:00,
2013-01-26 13:24:00,54.0,46.0,29.48,East,90,0.0,5.4,74,0.02,,OVC,0.05,WUHU21623XXSP,2013-01-26 11:24:00,
2013-01-26 13:29:00,54.1,46.4,29.48,SE,135,0.0,3.4,75,0.02,,OVC,0.05,WUHU21623XXSP,2013-01-26 11:29:00,
2013-01-26 13:34:00,54.3,47.0,29.47,NE,45,0.0,3.4,76,0.02,,OVC,0.05,WUHU21623XXSP,2013-01-26 11:34:00,
2013-01-26 13:39:00,54.5,46.8,29.47,ESE,112,0.0,2.0,75,0.01,,OVC,0.05,WUHU21623XXSP,2013-01-26 11:39:00,
2013-01-26 13:44:00,54.9,46.9,29.48,SE,135,0.0,2.8,74,0.00,,OVC,0.05,WUHU21623XXSP,2013-01-26 11:44:00,
2013-01-26 13:49:00,54.9,46.5,29.48,ENE,67,0.0,2.8,73,0.00,,OVC,0.05,WUHU21623XXSP,2013-01-26 11:49:00,
2013-01-26 13:54:00,55.0,46.6,29.48,ENE,67,1.0,5.6,73,0.00,,OVC,0.05,WUHU21623XXSP,2013-01-26 11:54:00,
2013-01-26 13:59:00,54.9,45.8,29.48,ENE,67,0.0,5.6,71,0.00,,OVC,0.05,WUHU21623XXSP,2013-01-26 11:59:00,
2013-01-26 14:04:00,54.9,45.8,29.48,ENE,67,0.0,5.2,71,0.00,,OVC,0.05,WUHU21623XXSP,2013-01-26 12:04:00,
2013-01-26 14:09:00,54.9,46.5,29.47,NNE,22,4.4,5.4,73,0.00,,OVC,0.05,WUHU21623XXSP,2013-01-26 12:09:00,
2013-01-26 14:14:00,54.7,46.3,29.48,East,90,2.2,7.2,73,0.00,,OVC,0.05,WUHU21623XXSP,2013-01-26 12:14:00,
2013-01-26 14:19:00,54.3,47.0,29.48,NNE,22,2.2,7.6,76,0.00,,OVC,0.05,WUHU21623XXSP,2013-01-26 12:19:00,
2013-01-26 14:24:00,53.8,47.2,29.48,NE,45,0.0,7.6,78,0.01,RA,,0.06,WUHU21623XXSP,2013-01-26 12:24:00,
2013-01-26 14:29:00,53.2,47.2,29.48,NNW,337,0.0,6.9,80,0.04,RA,,0.08,WUHU21623XXSP,2013-01-26 12:29:00,
2013-01-26 14:34:00,53.1,47.8,29.48,North,0,3.2,6.9,82,0.09,RA,,0.14,WUHU21623XXSP,2013-01-26 12:34:00,
2013-01-26 14:39:00,52.5,47.8,29.49,NNE,22,2.2,6.4,84,0.09,RA,,0.14,WUHU21623XXSP,2013-01-26 12:39:00,
2013-01-26 14:44:00,52.2,48.1,29.48,NNE,22,3.7,7.2,86,0.10,RA,,0.15,WUHU21623XXSP,2013-01-26 12:44:00,
2013-01-26 14:49:00,52.2,48.4,29.49,NNE,22,4.2,8.6,87,0.11,RA,,0.16,WUHU21623XXSP,2013-01-26 12:49:00,
2013-01-26 14:54:00,52.2,48.7,29.49,NE,45,1.4,11.8,88,0.11,RA,,0.16,WUHU21623XXSP,2013-01-26 12:54:00,
2013-01-26 14:59:00,52.2,48.4,29.49,NE,45,2.2,11.8,87,0.13,RA,,0.17,WUHU21623XXSP,2013-01-26 12:59:00,
2013-01-26 15:04:00,52.0,48.2,29.49,NNE,22,4.9,10.6,87,0.13,RA,,0.17,WUHU21623XXSP,2013-01-26 13:04:00,
2013-01-26 15:09:00,51.8,48.3,29.49,NE,45,0.0,9.6,88,0.14,RA,,0.19,WUHU21623XXSP,2013-01-26 13:09:00,
2013-01-26 15:14:00,51.6,48.1,29.49,NNE,22,3.7,7.4,88,0.14,RA,,0.19,WUHU21623XXSP,2013-01-26 13:14:00,
2013-01-26 15:19:00,51.4,47.9,29.49,NW,315,4.4,7.6,88,0.15,RA,,0.20,WUHU21623XXSP,2013-01-26 13:19:00,
2013-01-26 15:24:00,51.4,47.9,29.49,North,0,2.4,9.1,88,0.15,RA,,0.21,WUHU21623XXSP,2013-01-26 13:24:00,
2013-01-26 15:29:00,51.4,47.9,29.49,North,0,9.1,10.3,88,0.15,RA,,0.23,WUHU21623XXSP,2013-01-26 13:29:00,
2013-01-26 15:34:00,51.1,47.3,29.49,North,0,4.2,11.6,87,0.12,RA,,0.26,WUHU21623XXSP,2013-01-26 13:34:00,
2013-01-26 15:39:00,50.9,47.1,29.50,North,0,6.6,11.6,87,0.17, +RA,,0.31,WUHU21623XXSP,2013-01-26 13:39:00,
2013-01-26 15:44:00,50.7,47.2,29.50,North,0,3.2,11.6,88,0.17,RA,,0.32,WUHU21623XXSP,2013-01-26 13:44:00,
2013-01-26 15:49:00,50.7,46.3,29.50,NNE,22,2.0,8.6,85,0.16,RA,,0.32,WUHU21623XXSP,2013-01-26 13:49:00,
2013-01-26 15:54:00,50.7,46.7,29.50,North,0,5.9,7.6,86,0.18,RA,,0.34,WUHU21623XXSP,2013-01-26 13:54:00,
2013-01-26 15:59:00,50.5,46.5,29.51,North,0,3.4,7.6,86,0.17,RA,,0.34,WUHU21623XXSP,2013-01-26 13:59:00,
2013-01-26 16:04:00,50.5,46.5,29.51,NNE,22,0.0,7.6,86,0.17,RA,,0.34,WUHU21623XXSP,2013-01-26 14:04:00,
2013-01-26 16:09:00,50.5,46.5,29.51,NNW,337,1.4,8.1,86,0.16,RA,,0.34,WUHU21623XXSP,2013-01-26 14:09:00,
2013-01-26 16:14:00,50.4,46.4,29.51,North,0,5.6,8.1,86,0.16,RA,,0.34,WUHU21623XXSP,2013-01-26 14:14:00,
2013-01-26 16:19:00,50.4,46.4,29.51,NNE,22,2.8,9.4,86,0.14,RA,,0.34,WUHU21623XXSP,2013-01-26 14:19:00,
2013-01-26 16:24:00,50.4,46.7,29.51,NNW,337,0.0,9.4,87,0.14,RA,,0.35,WUHU21623XXSP,2013-01-26 14:24:00,
2013-01-26 16:29:00,50.2,46.5,29.51,NE,45,3.7,4.2,87,0.12,RA,,0.35,WUHU21623XXSP,2013-01-26 14:29:00,
2013-01-26 16:34:00,50.2,46.5,29.51,ENE,67,2.4,5.6,87,0.10,RA,,0.35,WUHU21623XXSP,2013-01-26 14:34:00,
2013-01-26 16:39:00,50.2,46.5,29.51,NE,45,4.7,10.6,87,0.05,RA,,0.35,WUHU21623XXSP,2013-01-26 14:39:00,
2013-01-26 16:44:00,50.2,46.5,29.51,NNE,22,6.2,12.5,87,0.04,RA,,0.35,WUHU21623XXSP,2013-01-26 14:44:00,
2013-01-26 16:49:00,50.2,46.5,29.51,NNW,337,3.2,12.5,87,0.02,RA,,0.35,WUHU21623XXSP,2013-01-26 14:49:00,
2013-01-26 16:54:00,50.2,46.5,29.51,NNE,22,3.0,9.1,87,0.01,RA,,0.35,WUHU21623XXSP,2013-01-26 14:54:00,
2013-01-26 16:59:00,50.2,46.5,29.51,NNE,22,2.0,9.1,87,0.01,RA,,0.35,WUHU21623XXSP,2013-01-26 14:59:00,
2013-01-26 17:04:00,50.2,46.5,29.51,NNW,337,0.8,7.2,87,0.01,RA,,0.35,WUHU21623XXSP,2013-01-26 15:04:00,
2013-01-26 17:09:00,50.4,46.7,29.52,NW,315,0.0,6.4,87,0.01,RA,,0.35,WUHU21623XXSP,2013-01-26 15:09:00,
2013-01-26 17:14:00,50.4,46.7,29.52,WNW,292,0.0,3.7,87,0.01,RA,,0.35,WUHU21623XXSP,2013-01-26 15:14:00,
2013-01-26 17:19:00,50.4,46.7,29.52,NW,315,1.4,2.2,87,0.01,RA,,0.35,WUHU21623XXSP,2013-01-26 15:19:00,
2013-01-26 17:24:00,50.4,46.7,29.52,NW,315,2.8,3.2,87,0.00,RA,,0.35,WUHU21623XXSP,2013-01-26 15:24:00,
2013-01-26 17:29:00,50.4,46.7,29.52,NW,315,0.0,3.4,87,0.00,RA,,0.35,WUHU21623XXSP,2013-01-26 15:29:00,
2013-01-26 17:34:00,50.4,46.7,29.52,NNE,22,2.4,5.4,87,0.00,RA,,0.35,WUHU21623XXSP,2013-01-26 15:34:00,
2013-01-26 17:39:00,50.2,46.2,29.52,NE,45,0.0,5.6,86,0.00,RA,,0.35,WUHU21623XXSP,2013-01-26 15:39:00,
2013-01-26 17:44:00,50.2,46.2,29.52,NE,45,0.0,5.6,86,0.00,RA,,0.35,WUHU21623XXSP,2013-01-26 15:44:00,
2013-01-26 17:49:00,50.4,46.4,29.52,NNE,22,0.0,5.4,86,0.00,RA,,0.35,WUHU21623XXSP,2013-01-26 15:49:00,
2013-01-26 17:54:00,50.4,46.4,29.53,NE,45,0.0,5.4,86,0.00,RA,,0.35,WUHU21623XXSP,2013-01-26 15:54:00,
2013-01-26 17:59:00,50.4,46.4,29.53,North,0,2.2,4.7,86,0.00,RA,,0.35,WUHU21623XXSP,2013-01-26 15:59:00,
2013-01-26 18:04:00,50.4,46.4,29.53,North,0,0.0,4.7,86,0.00,RA,,0.35,WUHU21623XXSP,2013-01-26 16:04:00,
2013-01-26 18:11:00,50.4,46.4,29.53,NE,45,0.0,4.2,86,0.00,RA,,0.35,WUHU21623XXSP,2013-01-26 16:11:00,
2013-01-26 18:16:00,50.2,46.2,29.53,NNE,22,0.0,4.9,86,0.00,RA,,0.35,WUHU21623XXSP,2013-01-26 16:16:00,
2013-01-26 18:21:00,50.4,46.1,29.53,NNE,22,0.0,7.6,85,0.00,RA,,0.35,WUHU21623XXSP,2013-01-26 16:21:00,
2013-01-26 18:26:00,50.4,46.1,29.54,NNE,22,0.0,7.6,85,0.00,,OVC,0.35,WUHU21623XXSP,2013-01-26 16:26:00,
2013-01-26 18:31:00,50.4,46.1,29.54,North,0,3.0,5.2,85,0.00,,OVC,0.35,WUHU21623XXSP,2013-01-26 16:31:00,
2013-01-26 18:36:00,50.4,46.1,29.54,NNE,22,2.2,5.6,85,0.00,,OVC,0.35,WUHU21623XXSP,2013-01-26 16:36:00,
2013-01-26 18:41:00,50.2,45.9,29.54,NE,45,0.0,5.6,85,0.00,,OVC,0.35,WUHU21623XXSP,2013-01-26 16:41:00,
2013-01-26 18:46:00,50.2,45.9,29.54,North,0,0.0,3.4,85,0.00,,OVC,0.35,WUHU21623XXSP,2013-01-26 16:46:00,
2013-01-26 18:51:00,50.2,45.9,29.55,North,0,0.0,3.4,85,0.00,,OVC,0.35,WUHU21623XXSP,2013-01-26 16:51:00,
2013-01-26 18:56:00,50.2,45.9,29.55,North,0,0.0,2.2,85,0.00,,OVC,0.35,WUHU21623XXSP,2013-01-26 16:56:00,
2013-01-26 19:01:00,50.2,45.9,29.55,NNW,337,2.2,3.7,85,0.00,,OVC,0.35,WUHU21623XXSP,2013-01-26 17:01:00,
2013-01-26 19:06:00,50.2,45.9,29.55,North,0,0.0,3.7,85,0.00,,OVC,0.35,WUHU21623XXSP,2013-01-26 17:06:00,
2013-01-26 19:11:00,50.2,45.9,29.55,NNE,22,0.0,2.4,85,0.00,,OVC,0.35,WUHU21623XXSP,2013-01-26 17:11:00,
2013-01-26 19:16:00,50.2,45.9,29.55,NE,45,0.0,1.4,85,0.00,,OVC,0.35,WUHU21623XXSP,2013-01-26 17:16:00,
2013-01-26 19:21:00,50.2,45.9,29.56,NE,45,1.2,1.4,85,0.00,,OVC,0.35,WUHU21623XXSP,2013-01-26 17:21:00,
2013-01-26 19:26:00,50.2,45.9,29.56,NNE,22,0.0,2.8,85,0.00,,OVC,0.35,WUHU21623XXSP,2013-01-26 17:26:00,
2013-01-26 19:31:00,50.2,45.9,29.56,NNE,22,0.0,2.8,85,0.00,,OVC,0.35,WUHU21623XXSP,2013-01-26 17:31:00,
2013-01-26 19:36:00,50.2,45.9,29.56,NNE,22,0.0,2.4,85,0.00,,OVC,0.35,WUHU21623XXSP,2013-01-26 17:36:00,
2013-01-26 19:41:00,50.2,45.9,29.56,East,90,0.0,2.4,85,0.00,,OVC,0.35,WUHU21623XXSP,2013-01-26 17:41:00,
2013-01-26 19:46:00,50.2,45.9,29.57,ENE,67,0.0,0.0,85,0.00,,OVC,0.35,WUHU21623XXSP,2013-01-26 17:46:00,
2013-01-26 20:27:00,50.2,45.6,29.58,South,180,0.0,0.0,84,0.00,-RA,,0.35,WUHU21623XXSP,2013-01-26 18:27:00,
2013-01-26 21:27:00,49.1,45.1,29.61,South,180,0.0,0.0,86,0.00,-RA,,0.38,WUHU21623XXSP,2013-01-26 19:27:00,
2013-01-26 21:39:00,48.9,45.5,29.62,North,0,0.0,0.0,88,0.00,-RA,,0.47,WUHU21623XXSP,2013-01-26 19:39:00,
2013-01-26 21:44:00,49.1,46.0,29.62,North,0,0.0,0.0,89,0.02,-RA,,0.49,WUHU21623XXSP,2013-01-26 19:44:00,
2013-01-26 21:49:00,48.7,45.9,29.62,North,0,0.0,9.1,90,0.04,-RA,,0.50,WUHU21623XXSP,2013-01-26 19:49:00,
2013-01-26 21:54:00,48.7,45.6,29.62,West,270,0.0,9.1,89,0.04,-RA,,0.50,WUHU21623XXSP,2013-01-26 19:54:00,
2013-01-26 21:59:00,48.6,45.5,29.63,West,270,0.0,1.2,89,0.04,-RA,,0.50,WUHU21623XXSP,2013-01-26 19:59:00,
2013-01-26 22:04:00,47.8,45.0,29.63,WSW,247,0.0,0.0,90,0.05,-RA,,0.52,WUHU21623XXSP,2013-01-26 20:04:00,
2013-01-26 22:09:00,47.8,45.3,29.63,WSW,247,0.0,0.0,91,0.05,-RA,,0.52,WUHU21623XXSP,2013-01-26 20:09:00,
2013-01-26 22:14:00,47.5,45.2,29.64,SSE,157,0.0,0.0,92,0.06,-RA,,0.53,WUHU21623XXSP,2013-01-26 20:14:00,
2013-01-26 22:19:00,47.3,45.3,29.64,SSE,157,0.0,0.0,93,0.06,-RA,,0.53,WUHU21623XXSP,2013-01-26 20:19:00,
2013-01-26 22:24:00,47.3,45.6,29.64,SSE,157,0.0,0.0,94,0.06,-RA,,0.53,WUHU21623XXSP,2013-01-26 20:24:00,
2013-01-26 22:29:00,47.3,45.9,29.64,SW,225,0.0,0.0,95,0.05,-RA,,0.54,WUHU21623XXSP,2013-01-26 20:29:00,
2013-01-26 22:34:00,47.7,46.3,29.65,WSW,247,0.0,0.0,95,0.05,-RA,,0.54,WUHU21623XXSP,2013-01-26 20:34:00,
2013-01-26 22:39:00,47.7,46.3,29.65,WNW,292,0.0,0.0,95,0.05,-RA,,0.54,WUHU21623XXSP,2013-01-26 20:39:00,
2013-01-26 22:44:00,47.7,46.3,29.65,SSW,202,0.0,0.0,95,0.05,-RA,,0.54,WUHU21623XXSP,2013-01-26 20:44:00,
2013-01-26 22:49:00,47.7,46.3,29.65,South,180,0.0,0.0,95,0.04,-RA,,0.54,WUHU21623XXSP,2013-01-26 20:49:00,
2013-01-26 22:54:00,47.7,46.3,29.65,NE,45,0.0,0.0,95,0.05,-RA,,0.55,WUHU21623XXSP,2013-01-26 20:54:00,
2013-01-26 22:59:00,47.3,45.9,29.64,ENE,67,0.0,0.0,95,0.05,-RA,,0.55,WUHU21623XXSP,2013-01-26 20:59:00,
2013-01-26 23:04:00,47.3,45.9,29.64,ENE,67,0.0,0.0,95,0.04,-RA,,0.55,WUHU21623XXSP,2013-01-26 21:04:00,
2013-01-26 23:09:00,47.1,46.0,29.64,ENE,67,0.0,0.0,96,0.04,-RA,,0.55,WUHU21623XXSP,2013-01-26 21:09:00,
2013-01-26 23:14:00,47.1,45.7,29.65,ESE,112,0.0,0.0,95,0.04,-RA,,0.56,WUHU21623XXSP,2013-01-26 21:14:00,
2013-01-26 23:19:00,47.1,45.7,29.65,SE,135,0.0,0.0,95,0.04,-RA,,0.56,WUHU21623XXSP,2013-01-26 21:19:00,
2013-01-26 23:24:00,47.1,45.7,29.65,SE,135,0.0,0.0,95,0.04,-RA,,0.56,WUHU21623XXSP,2013-01-26 21:24:00,
2013-01-26 23:29:00,46.8,45.4,29.65,SE,135,0.0,0.0,95,0.02,-RA,,0.56,WUHU21623XXSP,2013-01-26 21:29:00,
2013-01-26 23:34:00,46.9,45.5,29.65,SE,135,0.0,0.0,95,0.02,-RA,,0.56,WUHU21623XXSP,2013-01-26 21:34:00,
2013-01-26 23:39:00,46.8,45.4,29.66,SE,135,0.0,0.0,95,0.02,-RA,,0.56,WUHU21623XXSP,2013-01-26 21:39:00,
2013-01-26 23:44:00,46.8,45.4,29.66,SE,135,0.0,0.0,95,0.02,-RA,,0.56,WUHU21623XXSP,2013-01-26 21:44:00,
2013-01-26 23:49:00,46.8,45.4,29.66,SE,135,0.0,0.0,95,0.02,-RA,,0.56,WUHU21623XXSP,2013-01-26 21:49:00,
2013-01-26 23:54:00,46.8,45.4,29.66,SSE,157,0.0,0.0,95,0.01,-RA,,0.56,WUHU21623XXSP,2013-01-26 21:54:00,
2013-01-26 23:59:00,46.8,45.4,29.66,WNW,292,0.0,3.2,95,0.01,-RA,,0.56,WUHU21623XXSP,2013-01-26 21:59:00,